JAL33LR RJKA-RJFF

Flight info

Callsign JAL33LR
Flight time 0h 59m
Altitude 37000
Route RURIK Y532 HKC/N0459F360 Y504 GOKYO Y25 ISKUP
Aircraft A319/M-SDE3FGHIRWY/LB1

Departure

Time 2026-05-07 16:59
Airport Amami Airport (RJKA)

Arrival

Time 2026-05-07 17:59
Airport Fukuoka Airport (RJFF)
Time Latitude Longitude Altitude Speed Heading
2026-05-07 16:41 28.43162 129.70920 24 ft 0 kts 295°
2026-05-07 16:52 28.43159 129.70927 24 ft 2 kts 295°
2026-05-07 16:52 28.43153 129.70943 24 ft 2 kts 295°
2026-05-07 16:52 28.43146 129.70958 24 ft 2 kts 295°
2026-05-07 16:53 28.43140 129.70973 24 ft 2 kts 295°
2026-05-07 16:53 28.43134 129.70989 24 ft 2 kts 295°
2026-05-07 16:53 28.43129 129.70999 23 ft 2 kts 289°
2026-05-07 16:53 28.43130 129.71016 23 ft 2 kts 245°
2026-05-07 16:54 28.43139 129.71027 24 ft 0 kts 211°
2026-05-07 16:54 28.43145 129.71030 23 ft 1 kts 205°
2026-05-07 16:54 28.43146 129.71031 23 ft 0 kts 206°
2026-05-07 16:55 28.43142 129.71030 23 ft 2 kts 204°
2026-05-07 16:56 28.43110 129.71024 23 ft 8 kts 184°
2026-05-07 16:56 28.43020 129.71017 21 ft 16 kts 191°
2026-05-07 16:56 28.42770 129.70885 21 ft 20 kts 205°
2026-05-07 16:57 28.42641 129.70813 21 ft 20 kts 206°
2026-05-07 16:57 28.42515 129.70744 21 ft 20 kts 206°
2026-05-07 16:57 28.42395 129.70676 21 ft 16 kts 207°
2026-05-07 16:57 28.42316 129.70686 21 ft 12 kts 122°
2026-05-07 16:58 28.42283 129.70784 21 ft 12 kts 113°
2026-05-07 16:58 28.42286 129.70830 21 ft 0 kts 26°
2026-05-07 16:58 28.42316 129.70845 21 ft 26 kts 26°
2026-05-07 16:59 28.42730 129.71072 20 ft 102 kts 26°
2026-05-07 16:59 28.43569 129.71533 23 ft 163 kts 26°
2026-05-07 16:59 28.44622 129.72134 532 ft 172 kts 27°
2026-05-07 16:59 28.45694 129.72780 1206 ft 177 kts 28°
2026-05-07 17:00 28.46777 129.73444 1920 ft 180 kts 26°
2026-05-07 17:00 28.47905 129.74109 2443 ft 194 kts 26°
2026-05-07 17:00 28.49173 129.74834 2858 ft 213 kts 25°
2026-05-07 17:00 28.50574 129.75618 3259 ft 236 kts 25°
2026-05-07 17:01 28.52112 129.76486 3764 ft 255 kts 25°
2026-05-07 17:01 28.53745 129.77409 4287 ft 272 kts 25°
2026-05-07 17:01 28.55491 129.78401 5022 ft 281 kts 24°
2026-05-07 17:01 28.57241 129.79404 5859 ft 285 kts 24°
2026-05-07 17:02 28.59017 129.80423 6686 ft 289 kts 24°
2026-05-07 17:02 28.60799 129.81445 7488 ft 294 kts 24°
2026-05-07 17:02 28.62633 129.82497 8297 ft 298 kts 24°
2026-05-07 17:02 28.64483 129.83559 9095 ft 302 kts 24°
2026-05-07 17:03 28.66370 129.84642 9892 ft 306 kts 24°
2026-05-07 17:03 28.68277 129.85741 10552 ft 314 kts 24°
2026-05-07 17:03 28.70306 129.86903 10947 ft 331 kts 24°
2026-05-07 17:03 28.72412 129.88110 11277 ft 349 kts 24°
2026-05-07 17:04 28.74628 129.89384 11571 ft 367 kts 24°
2026-05-07 17:04 28.76960 129.90727 11921 ft 381 kts 24°
2026-05-07 17:04 28.79341 129.92104 12466 ft 387 kts 24°
2026-05-07 17:04 28.81774 129.93510 13037 ft 392 kts 24°
2026-05-07 17:05 28.84209 129.94919 13592 ft 396 kts 24°
2026-05-07 17:05 28.86694 129.96358 14141 ft 400 kts 24°
2026-05-07 17:05 28.89169 129.97790 14675 ft 404 kts 24°
2026-05-07 17:05 28.91691 129.99249 15219 ft 407 kts 24°
2026-05-07 17:06 28.94223 130.00714 15755 ft 410 kts 24°
2026-05-07 17:06 28.96786 130.02199 16282 ft 413 kts 24°
2026-05-07 17:06 28.99349 130.03683 16765 ft 416 kts 23°
2026-05-07 17:06 29.01940 130.05185 17254 ft 419 kts 23°
2026-05-07 17:07 29.04573 130.06711 17759 ft 422 kts 23°
2026-05-07 17:07 29.07175 130.08221 18238 ft 425 kts 23°
2026-05-07 17:07 29.09831 130.09761 18690 ft 428 kts 23°
2026-05-07 17:07 29.12498 130.11304 19130 ft 432 kts 23°
2026-05-07 17:08 29.15189 130.12860 19568 ft 435 kts 23°
2026-05-07 17:08 29.17892 130.14429 20033 ft 438 kts 23°
2026-05-07 17:08 29.20607 130.16008 20464 ft 441 kts 23°
2026-05-07 17:08 29.23345 130.17601 20889 ft 444 kts 23°
2026-05-07 17:09 29.26120 130.19217 21329 ft 446 kts 22°
2026-05-07 17:09 29.28983 130.20654 21731 ft 446 kts 15°
2026-05-07 17:09 29.31933 130.21675 22148 ft 444 kts
2026-05-07 17:09 29.34979 130.22302 22567 ft 443 kts
2026-05-07 17:10 29.38040 130.22768 22970 ft 445 kts
2026-05-07 17:10 29.41135 130.23207 23384 ft 447 kts
2026-05-07 17:10 29.44224 130.23648 23785 ft 450 kts
2026-05-07 17:10 29.47335 130.24098 24185 ft 452 kts
2026-05-07 17:11 29.50491 130.24562 24615 ft 454 kts
2026-05-07 17:11 29.53634 130.25027 25021 ft 456 kts
2026-05-07 17:11 29.56782 130.25499 25412 ft 458 kts
2026-05-07 17:11 29.59960 130.25975 25774 ft 460 kts
2026-05-07 17:12 29.63159 130.26454 26144 ft 463 kts
2026-05-07 17:12 29.66340 130.26933 26501 ft 465 kts
2026-05-07 17:12 29.69568 130.27422 26898 ft 467 kts
2026-05-07 17:12 29.72794 130.27908 27260 ft 469 kts
2026-05-07 17:13 29.76066 130.28400 27644 ft 470 kts
2026-05-07 17:13 29.79311 130.28889 27981 ft 472 kts
2026-05-07 17:13 29.82595 130.29384 28287 ft 475 kts
2026-05-07 17:13 29.85894 130.29883 28674 ft 475 kts
2026-05-07 17:14 29.89167 130.30382 29153 ft 473 kts
2026-05-07 17:14 29.92431 130.30876 29647 ft 471 kts
2026-05-07 17:14 29.95657 130.31364 30086 ft 470 kts
2026-05-07 17:14 29.98915 130.31856 30500 ft 469 kts
2026-05-07 17:15 30.02147 130.32347 30943 ft 468 kts
2026-05-07 17:15 30.05372 130.32838 31311 ft 468 kts
2026-05-07 17:15 30.08622 130.33337 31710 ft 468 kts
2026-05-07 17:15 30.11940 130.33843 32082 ft 467 kts
2026-05-07 17:16 30.15170 130.34334 32449 ft 467 kts
2026-05-07 17:16 30.18366 130.34822 32836 ft 466 kts
2026-05-07 17:16 30.21583 130.35318 33219 ft 465 kts
2026-05-07 17:16 30.24768 130.35803 33604 ft 463 kts
2026-05-07 17:17 30.27976 130.36296 33983 ft 462 kts
2026-05-07 17:17 30.31150 130.36783 34337 ft 461 kts
2026-05-07 17:17 30.34354 130.37274 34729 ft 458 kts
2026-05-07 17:17 30.37503 130.37758 35140 ft 455 kts
2026-05-07 17:18 30.40659 130.38243 35516 ft 453 kts
2026-05-07 17:18 30.43795 130.38722 35737 ft 454 kts 360°
2026-05-07 17:18 30.46919 130.39200 35920 ft 455 kts 360°
2026-05-07 17:18 30.50087 130.39685 36152 ft 455 kts 360°
2026-05-07 17:19 30.53210 130.40164 36351 ft 456 kts 360°
2026-05-07 17:19 30.56347 130.40646 36486 ft 457 kts 360°
2026-05-07 17:19 30.59491 130.41130 36655 ft 458 kts 359°
2026-05-07 17:19 30.62651 130.41615 36818 ft 458 kts 360°
2026-05-07 17:20 30.69009 130.42593 36920 ft 459 kts 360°
2026-05-07 17:20 30.75369 130.43578 36925 ft 460 kts 359°
2026-05-07 17:21 30.81724 130.44560 36928 ft 459 kts 359°
2026-05-07 17:21 30.88078 130.45543 36929 ft 461 kts 359°
2026-05-07 17:22 30.94422 130.46526 36927 ft 460 kts 360°
2026-05-07 17:22 31.00726 130.47505 36930 ft 460 kts 359°
2026-05-07 17:23 31.07119 130.48498 36928 ft 462 kts 359°
2026-05-07 17:23 31.13542 130.49497 36933 ft 462 kts 360°
2026-05-07 17:24 31.19896 130.50487 36935 ft 462 kts 360°
2026-05-07 17:24 31.26286 130.51485 36937 ft 463 kts 360°
2026-05-07 17:25 31.32673 130.52484 36935 ft 463 kts 360°
2026-05-07 17:25 31.39043 130.53481 36936 ft 463 kts 360°
2026-05-07 17:26 31.45443 130.54486 36938 ft 464 kts 360°
2026-05-07 17:26 31.51841 130.55487 36934 ft 463 kts 360°
2026-05-07 17:27 31.58225 130.56491 36941 ft 464 kts
2026-05-07 17:27 31.64598 130.57088 36935 ft 455 kts 351°
2026-05-07 17:28 31.70839 130.56287 36935 ft 445 kts 340°
2026-05-07 17:28 31.76687 130.54144 36936 ft 434 kts 329°
2026-05-07 17:29 31.82113 130.51062 36937 ft 432 kts 326°
2026-05-07 17:29 31.87484 130.47856 36940 ft 433 kts 326°
2026-05-07 17:30 31.92883 130.44643 36941 ft 433 kts 326°
2026-05-07 17:30 31.98276 130.41443 36937 ft 433 kts 326°
2026-05-07 17:31 32.03662 130.38257 36935 ft 434 kts 327°
2026-05-07 17:31 32.09211 130.35350 36658 ft 436 kts 329°
2026-05-07 17:32 32.12027 130.33925 36373 ft 434 kts 329°
2026-05-07 17:32 32.14793 130.32530 36100 ft 432 kts 329°
2026-05-07 17:32 32.17569 130.31125 35829 ft 431 kts 329°
2026-05-07 17:32 32.20300 130.29736 35551 ft 431 kts 329°
2026-05-07 17:33 32.23069 130.28320 35272 ft 432 kts 329°
2026-05-07 17:33 32.25809 130.26918 35004 ft 433 kts 329°
2026-05-07 17:33 32.28621 130.25476 34632 ft 436 kts 329°
2026-05-07 17:33 32.31391 130.24052 34139 ft 437 kts 329°
2026-05-07 17:34 32.34193 130.22613 33486 ft 439 kts 329°
2026-05-07 17:34 32.36985 130.21179 32765 ft 440 kts 329°
2026-05-07 17:34 32.39806 130.19733 32032 ft 441 kts 329°
2026-05-07 17:34 32.42562 130.18245 31319 ft 440 kts 327°
2026-05-07 17:35 32.45319 130.16583 30542 ft 440 kts 325°
2026-05-07 17:35 32.47995 130.14909 29786 ft 440 kts 325°
2026-05-07 17:35 32.50705 130.13202 29064 ft 440 kts 324°
2026-05-07 17:35 32.53421 130.11491 28271 ft 442 kts 325°
2026-05-07 17:36 32.56096 130.09811 27749 ft 437 kts 325°
2026-05-07 17:36 32.58835 130.08260 27269 ft 436 kts 330°
2026-05-07 17:36 32.61705 130.06978 26758 ft 436 kts 335°
2026-05-07 17:36 32.64594 130.06017 26268 ft 435 kts 339°
2026-05-07 17:37 32.67551 130.05234 25757 ft 432 kts 341°
2026-05-07 17:37 32.70501 130.04492 25263 ft 428 kts 341°
2026-05-07 17:37 32.73402 130.03767 24774 ft 424 kts 341°
2026-05-07 17:37 32.76258 130.03049 24294 ft 420 kts 341°
2026-05-07 17:38 32.79092 130.02328 23802 ft 417 kts 341°
2026-05-07 17:38 32.81930 130.01608 23306 ft 415 kts 341°
2026-05-07 17:38 32.84733 130.00897 22821 ft 412 kts 341°
2026-05-07 17:38 32.87521 130.00191 22333 ft 410 kts 341°
2026-05-07 17:39 32.90335 129.99472 21844 ft 408 kts 341°
2026-05-07 17:39 32.93096 129.98769 21368 ft 406 kts 341°
2026-05-07 17:39 32.95879 129.98058 20900 ft 403 kts 341°
2026-05-07 17:39 32.98599 129.97363 20422 ft 401 kts 341°
2026-05-07 17:40 33.01319 129.96668 19960 ft 399 kts 341°
2026-05-07 17:40 33.04017 129.95975 19495 ft 396 kts 340°
2026-05-07 17:40 33.06735 129.95277 19011 ft 394 kts 340°
2026-05-07 17:40 33.09378 129.94598 18550 ft 392 kts 341°
2026-05-07 17:41 33.12088 129.93903 18049 ft 391 kts 341°
2026-05-07 17:41 33.14738 129.93227 17570 ft 389 kts 340°
2026-05-07 17:41 33.17361 129.92557 17100 ft 387 kts 341°
2026-05-07 17:41 33.19980 129.91885 16632 ft 385 kts 341°
2026-05-07 17:42 33.22613 129.91213 16140 ft 385 kts 341°
2026-05-07 17:42 33.25236 129.90541 15659 ft 383 kts 341°
2026-05-07 17:42 33.27824 129.89874 15172 ft 382 kts 341°
2026-05-07 17:42 33.30411 129.89208 14675 ft 381 kts 341°
2026-05-07 17:43 33.33011 129.88536 14188 ft 379 kts 342°
2026-05-07 17:43 33.35576 129.87872 13704 ft 377 kts 342°
2026-05-07 17:43 33.38134 129.87213 13229 ft 375 kts 342°
2026-05-07 17:43 33.40671 129.86557 12758 ft 372 kts 342°
2026-05-07 17:44 33.43198 129.85904 12286 ft 369 kts 342°
2026-05-07 17:44 33.45692 129.85275 11820 ft 367 kts 345°
2026-05-07 17:44 33.48235 129.85094 11360 ft 371 kts 358°
2026-05-07 17:44 33.50811 129.85599 10903 ft 373 kts 10°
2026-05-07 17:45 33.53281 129.86447 10464 ft 370 kts 13°
2026-05-07 17:45 33.55713 129.87350 10275 ft 357 kts 13°
2026-05-07 17:45 33.58034 129.88217 10173 ft 342 kts 13°
2026-05-07 17:45 33.60245 129.89031 10080 ft 327 kts 12°
2026-05-07 17:46 33.62397 129.89812 10005 ft 313 kts 12°
2026-05-07 17:46 33.64463 129.90555 9869 ft 303 kts 11°
2026-05-07 17:46 33.66470 129.91267 9528 ft 301 kts 12°
2026-05-07 17:46 33.68459 129.91974 9210 ft 299 kts 12°
2026-05-07 17:47 33.70469 129.92690 8879 ft 296 kts 12°
2026-05-07 17:47 33.72434 129.93391 8563 ft 294 kts 12°
2026-05-07 17:47 33.74385 129.94089 8256 ft 292 kts 12°
2026-05-07 17:47 33.76336 129.94786 8023 ft 285 kts 11°
2026-05-07 17:48 33.78102 129.95270 8003 ft 277 kts
2026-05-07 17:48 33.79736 129.95514 7996 ft 272 kts 359°
2026-05-07 17:48 33.81618 129.95674 7670 ft 274 kts 359°
2026-05-07 17:48 33.83545 129.95911 7051 ft 286 kts
2026-05-07 17:49 33.85538 129.96211 6621 ft 288 kts
2026-05-07 17:49 33.87538 129.96515 6281 ft 286 kts
2026-05-07 17:49 33.89507 129.96812 5934 ft 285 kts
2026-05-07 17:49 33.91386 129.97553 5542 ft 291 kts 33°
2026-05-07 17:50 33.92670 129.99373 5259 ft 289 kts 68°
2026-05-07 17:50 33.92944 130.01735 4981 ft 284 kts 101°
2026-05-07 17:50 33.92310 130.03928 4710 ft 277 kts 124°
2026-05-07 17:50 33.91298 130.05925 4436 ft 277 kts 126°
2026-05-07 17:51 33.90292 130.07896 4161 ft 276 kts 125°
2026-05-07 17:51 33.89306 130.09907 3886 ft 275 kts 123°
2026-05-07 17:51 33.88369 130.11893 3618 ft 273 kts 123°
2026-05-07 17:51 33.87450 130.13882 3345 ft 272 kts 122°
2026-05-07 17:52 33.86542 130.15875 3069 ft 270 kts 122°
2026-05-07 17:52 33.85633 130.17871 2791 ft 270 kts 122°
2026-05-07 17:52 33.84733 130.19852 2516 ft 269 kts 122°
2026-05-07 17:52 33.83839 130.21823 2303 ft 267 kts 121°
2026-05-07 17:53 33.82958 130.23770 2149 ft 259 kts 121°
2026-05-07 17:53 33.82111 130.25639 2010 ft 250 kts 122°
2026-05-07 17:53 33.81298 130.27438 1992 ft 237 kts 122°
2026-05-07 17:53 33.80516 130.29100 1981 ft 223 kts 128°
2026-05-07 17:54 33.79510 130.30479 1987 ft 218 kts 143°
2026-05-07 17:54 33.78292 130.31554 1988 ft 215 kts 152°
2026-05-07 17:54 33.77010 130.32483 1989 ft 215 kts 154°
2026-05-07 17:54 33.75699 130.33383 1991 ft 214 kts 155°
2026-05-07 17:55 33.74404 130.34262 1991 ft 214 kts 155°
2026-05-07 17:55 33.73106 130.35147 1993 ft 214 kts 154°
2026-05-07 17:55 33.71800 130.36041 1993 ft 212 kts 154°
2026-05-07 17:55 33.70572 130.36885 1979 ft 199 kts 154°
2026-05-07 17:56 33.69385 130.37700 1986 ft 193 kts 155°
2026-05-07 17:56 33.68234 130.38486 1951 ft 187 kts 155°
2026-05-07 17:56 33.67131 130.39241 1708 ft 177 kts 155°
2026-05-07 17:56 33.66095 130.39949 1463 ft 166 kts 154°
2026-05-07 17:57 33.65113 130.40614 1257 ft 153 kts 155°
2026-05-07 17:57 33.64228 130.41213 1022 ft 142 kts 155°
2026-05-07 17:57 33.63398 130.41774 798 ft 132 kts 153°
2026-05-07 17:57 33.62606 130.42322 622 ft 130 kts 152°
2026-05-07 17:58 33.61821 130.42864 489 ft 130 kts 152°
2026-05-07 17:58 33.61028 130.43404 360 ft 130 kts 152°
2026-05-07 17:58 33.60248 130.43938 194 ft 129 kts 151°
2026-05-07 17:58 33.59486 130.44458 51 ft 123 kts 151°
2026-05-07 17:59 33.58896 130.44859 43 ft 67 kts 150°
2026-05-07 17:59 33.58540 130.45108 43 ft 50 kts 148°
2026-05-07 17:59 33.58339 130.45328 43 ft 23 kts 122°
2026-05-07 17:59 33.58305 130.45444 42 ft 13 kts 82°
2026-05-07 18:00 33.58373 130.45448 42 ft 13 kts 329°
2026-05-07 18:00 33.58478 130.45378 42 ft 21 kts 330°
2026-05-07 18:00 33.58609 130.45287 42 ft 21 kts 329°
2026-05-07 18:00 33.58741 130.45195 42 ft 21 kts 330°
2026-05-07 18:01 33.58874 130.45105 42 ft 21 kts 330°
2026-05-07 18:01 33.59007 130.45015 42 ft 21 kts 330°
2026-05-07 18:01 33.59108 130.44992 42 ft 13 kts 55°
2026-05-07 18:01 33.59131 130.45038 42 ft 0 kts 60°